Regional Weather Roundup
Issued by NWS

Home | Current Version | Previous Version | Graphics & Text | Print | Product List | Glossary On
Versions: 1 2 3 4 5 6 7 8 9 10 11 12 13 14 15 16 17 18 19 20 21 22 23 24 25 26 27 28 29 30 31 32 33 34 35 36 37 38 39 40 41 42 43 44 45 46 47 48 49 50
000
ASUS43 KOAX 260902
RWRNE

WEATHER ROUNDUP FOR NEBRASKA
NATIONAL WEATHER SERVICE OMAHA NE
400 AM CDT TUE JUL 26 2016

NOTES: SATELLITE DATA IS BEING USED TO AUGMENT CLOUD COVER ABOVE
       12000 FEET.
       "FAIR" INDICATES FEW OR NO CLOUDS BELOW 12,000 FEET WITH NO
       SIGNIFICANT WEATHER AND/OR OBSTRUCTIONS TO VISIBILITY.

  * THESE STATIONS DO NOT REPORT WEATHER SUCH AS RAIN...SNOW OR FOG.

NEZ001>004-019>022-054>056-261000-
NEBRASKA PANHANDLE

CITY           SKY/WX    TMP DP  RH WIND       PRES   REMARKS
SCOTTSBLUFF    CLEAR     67  61  81 E10       30.06F
ALLIANCE       CLEAR     64  62  93 SE8       30.08F
CHADRON        CLEAR     74  61  63 S17G24    30.00F
KIMBALL        CLEAR     64  63  97 S10       30.13S
SIDNEY         CLEAR     65  62  90 S14       30.11F
$$

NEZ057>060-069>072-079>082-261000-
SOUTHWEST NEBRASKA

CITY           SKY/WX    TMP DP  RH WIND       PRES   REMARKS
NORTH PLATTE   CLEAR     65  63  93 E6        30.11S
IMPERIAL       CLEAR     67  64  90 S8        30.11S
LEXINGTON      CLEAR     66  62  87 SE6       30.11F
MCCOOK         CLEAR     68  63  84 E8        30.10S
OGALLALA       CLEAR     68  64  85 SE5       30.11S
$$

NEZ005>010-023>029-035>040-094-261000-
NORTH CENTRAL NEBRASKA

CITY           SKY/WX    TMP DP  RH WIND       PRES   REMARKS
VALENTINE      CLEAR     70  61  73 S13       30.06F
AINSWORTH      CLEAR     67  63  85 S9        30.09F
BROKEN BOW     CLEAR     64  60  87 CALM      30.11S
O`NEILL        CLEAR     66  61  83 S8        30.09F
ORD            CLEAR     65  61  87 SE6       30.09F
THEDFORD       CLEAR     67  65  91 SE6       30.11S
$$

NEZ041-046>049-061>064-073>077-083>087-261000-
SOUTH CENTRAL NEBRASKA

CITY           SKY/WX    TMP DP  RH WIND       PRES   REMARKS
GRAND ISLAND   CLEAR     64  61  90 S6        30.11F
AURORA         CLEAR     61  61  98 CALM      30.10F
HASTINGS       CLEAR     67  60  78 CALM      30.12S
HEBRON         CLEAR     61  59  94 CALM      30.08F
HOLDREGE       CLEAR     63  60  90 SE3       30.12R
KEARNEY *      CLEAR     63  59  88 CALM      30.12S
YORK           CLEAR     63  61  94 CALM      30.10S
$$

NEZ011>018-030>034-042>045-261000-
NORTHEAST NEBRASKA

CITY           SKY/WX    TMP DP  RH WIND       PRES   REMARKS
NORFOLK        CLEAR     61  60  97 E3        30.09S
ALBION         CLEAR     61  58  90 SE3       30.11S
BLAIR          CLEAR     68  65  89 CALM      30.09S
FREMONT        CLEAR     65  64  94 CALM      30.09F
TEKAMAH        CLEAR     62  60  93 CALM      30.08F FOG
WAYNE          CLEAR     62  61  96 S3        30.10S
$$

NEZ050>053-065>068-078-088>093-261000-
SOUTHEAST NEBRASKA

CITY           SKY/WX    TMP DP  RH WIND       PRES   REMARKS
LINCOLN        CLEAR     66  64  93 N5        30.08F
OMAHA EPPLEY   CLEAR     65  62  90 CALM      30.08S
BEATRICE       PTCLDY    64  63  94 CALM      30.08F
FALLS CITY     PTCLDY    66  65  96 N5        30.06S
NEBRASKA CITY  PTCLDY    67  67 100 CALM      30.08S
PLATTSMOUTH    PTCLDY    66  66  99 CALM      30.08S
$$

NEZ044-045-051>053-067-261000-
OMAHA AREA

CITY           SKY/WX    TMP DP  RH WIND       PRES   REMARKS
OMAHA EPPLEY   CLEAR     65  62  90 CALM      30.08S
BLAIR          CLEAR     68  65  89 CALM      30.09S
FREMONT        CLEAR     65  64  94 CALM      30.09F
MILLARD        CLEAR     68  66  95 CALM      30.08S
OFFUTT AFB     PTCLDY    63  63 100 W2        30.07S
PLATTSMOUTH    PTCLDY    66  66  99 CALM      30.08S
WAHOO          FAIR      63  61  95 CALM      30.09S
$$




USA.gov is the U.S. government's official web portal to all federal, state and local government web resources and services.